Find Skynet 5C

NORAD ID: 33055 Int'l Des: 2008-030 Owner: PARA Country: UK operational
HEOCIRCULARGSO

Live Position

Loading 3D Globe...

About Skynet 5C

Description loading...

Upcoming Passes

Passes for default location (London). Set your location on the main map for personalized predictions.

Altitude History

Loading altitude history...

Two-Line Element Set

1 33055U 08030A 26106.36562484 -.00000131 00000-0 00000+0 0 9995
2 33055 3.6302 77.7472 0003607 307.9821 292.6210 1.00270351 65330
Epoch: Apr 16, 2026 • Age: 12 hours

Current Status

Altitude 35792.9 km
Velocity 3.07 km/s
Sub-Earth Point 3.24°N, 17.81°W
Launch Date Jun 12, 2008
Age 17.8 years
Type other

Technical Details

Classification Payload
Mass 4635.00 kg
Dry Mass 2170.00 kg
Total Mass 4635.00 kg
Length 4.50 m
Diameter 2.90 m
Span 34.00 m
Shape Box + 2 Pan
Manufacturer EADSB
Bus Type Eurostar 3000
Phase Status Renamed
Owner/State PARA/UK

Most Searched